Temp
71 70 73 73 74 73 74 74 72 75 72 82 73 71 73 75 74 73 73 75 76 77 76 76 77 78 78 78 78 77 78 78 78 78 79 79 79 79 80 80 80 78 78 80
65 69 71 71 72 73 74 73 72 71 73 75 76 75 73 74 72 73 72 75 77 77 76 76 76 76 76 76 76 76 76 76 76 76 76 77 77 77 78 80 80 79 80 79
64 67 71 67 73 73 73 73 74 71 77 72 71 72 73 72 72 72 74 75 75 75 75 75 75 74 74 74 76 75 74 75 75 74 74 75 75 75 76 77 78 78 78 79
66 66 58 69 72 72 70 70 72 72 71 70 74 75 75 76 74 73 74 73 73 75 74 74 75 75 74 75 73 73 73 73 74 73 73 73 73 74 74 75 75 76 77 78
64 64 64 67 67 67 68 72 72 71 70 71 71 73 69 75 77 74 74 74 74 75 73 73 73 73 73 73 72 72 72 71 71 71 71 71 71 72 73 73 73 75 76 76
58 57 56 68 70 72 74 64 71 71 71 69 73 68 67 71 74 73 73 73 73 72 73 73 71 72 71 71 71 71 71 70 70 70 70 70 70 70 71 72 72 75 75 75
60 60 63 71 72 74 64 67 70 71 72 72 72 69 68 70 69 73 72 71 71 72 71 70 71 70 69 69 69 69 70 69 69 69 69 69 69 70 70 71 71 71 72 73
59 59 55 72 71 68 71 71 70 70 71 70 68 69 69 69 69 70 70 69 70 69 69 69 69 68 67 66 68 68 67 65 64 66 66 67 65 66 68 67 67 69 70 71
66 68 65 66 67 71 72 71 71 71 72 70 68 67 69 67 68 68 68 69 69 68 67 69 68 67 65 64 66 66 64 63 63 64 66 66 66 67 64 63 62 63 68 71
62 64 65 66 68 71 73 73 73 72 71 71 69 69 68 68 68 68 68 67 67 67 66 65 66 65 63 62 63 63 62 62 63 64 65 66 68 71 69 66 63 62 62 64
63 64 65 67 68 71 71 73 72 72 72 71 70 69 69 67 66 66 66 66 66 65 64 63 62 62 63 63 63 61 61 62 62 63 62 63 65 65 64 66 64 64 65 65
68 70 69 69 69 71 69 70 71 69 68 69 70 67 67 66 65 65 64 64 64 64 64 62 61 61 62 62 60 58 58 59 58 58 60 60 60 62 59 54 53 51 50 55
68 69 68 73 71 73 70 70 71 71 70 67 68 69 68 65 64 59 63 63 62 62 61 61 61 61 61 61 60 57 56 57 58 56 58 58 59 59 59 64 54 51 50 50
69 69 66 69 67 71 71 71 69 72 71 69 68 68 67 65 63 63 62 62 63 62 61 62 62 61 62 63 60 58 58 55 57 57 57 57 57 57 58 59 60 64 59 54
67 71 74 73 71 70 71 69 67 67 68 67 69 67 66 64 63 62 63 63 63 63 62 62 61 61 63 64 62 59 58 58 59 59 58 56 56 57 57 58 58 59 60 59
66 68 69 69 67 67 67 68 67 67 68 67 66 65 65 65 64 63 63 63 63 62 62 61 62 63 64 63 62 62 59 58 58 58 57 56 56 55 54 54 55 56 57 60
64 62 66 65 65 66 63 67 69 68 67 66 66 65 64 64 63 62 63 64 63 63 63 62 62 64 64 64 65 64 62 62 59 60 57 56 55 54 54 55 53 53 55 56
63 64 64 61 63 59 60 66 68 67 67 68 67 64 62 62 62 62 63 64 63 64 65 64 64 65 65 65 66 65 64 64 64 62 62 60 56 57 55 54 53 52 53 53
60 58 60 58 59 59 59 62 66 68 65 65 65 63 63 64 64 64 64 63 63 63 66 66 61 65 65 64 64 67 64 64 64 63 62 58 61 61 56 54 52 52 52 51
57 58 58 57 58 59 59 63 69 67 67 67 66 62 59 64 64 63 63 63 66 67 66 66 65 66 66 64 61 67 65 64 63 62 62 62 61 60 56 51 52 51 51 49
56 57 57 56 57 59 60 66 64 62 65 65 64 63 62 65 64 64 61 62 66 65 64 60 64 68 69 66 67 67 67 64 63 62 61 61 61 61 59 52 50 50 49 48
58 58 57 57 57 58 64 66 67 66 65 64 65 66 63 63 59 62 64 64 69 56 65 67 67 63 67 60 69 67 67 65 64 63 62 61 60 59 57 50 49 49 49 49
58 60 58 60 60 62 64 66 67 66 66 65 63 64 61 63 64 65 61 69 68 63 66 67 63 58 57 66 67 66 65 64 63 63 62 61 60 60 58 52 49 49 48 48
61 62 62 62 62 63 62 65 65 65 66 66 66 66 64 60 62 67 65 61 55 57 66 67 64 56 54 67 66 65 65 64 64 63 62 50 61 60 59 56 50 49 49 48
62 62 62 63 62 62 64 64 64 64 64 64 65 65 62 62 66 66 67 68 56 57 67 57 55 55 67 68 67 66 65 65 64 62 63 62 62 60 59 59 55 51 50 50
61 61 61 62 64 66 65 66 67 62 66 65 61 62 63 66 68 65 67 61 67 61 69 70 70 69 70 70 69 68 67 68 66 67 62 64 61 60 60 59 57 56 54 52
61 53 62 61 67 67 68 67 68 65 64 65 66 68 69 69 68 65 59 69 69 71 71 71 72 66 70 70 70 69 69 67 60 66 67 66 65 63 62 60 59 58 58 57
MSLP
1005.06 1005.00 1004.86 1004.51 1004.39 1004.49 1004.36 1004.64 1004.60 1004.52 1005.24 1004.95 1006.84 1008.19 1009.09 1010.02 1010.88 1011.56 1012.12 1012.56 1012.88 1013.11 1013.41 1013.84 1013.97 1013.99 1014.26 1014.52 1014.56 1014.52 1014.37 1014.23 1014.17 1014.13 1013.98 1013.67 1013.37 1013.24 1013.21 1013.12 1012.91 1012.89 1012.84 1012.82
1005.31 1005.28 1005.04 1004.72 1004.81 1004.91 1005.07 1005.16 1005.20 1005.30 1005.18 1005.94 1006.93 1008.26 1009.29 1009.93 1010.89 1011.52 1012.07 1012.50 1012.85 1013.18 1013.65 1014.09 1014.26 1014.36 1014.72 1014.82 1014.81 1014.70 1014.39 1014.21 1014.10 1013.96 1013.75 1013.47 1013.37 1013.30 1013.05 1012.76 1012.64 1012.61 1012.51 1012.45
1005.43 1005.70 1005.35 1005.23 1004.76 1005.01 1005.25 1005.55 1005.52 1005.49 1005.59 1006.52 1007.21 1007.91 1008.72 1009.76 1010.79 1011.50 1012.03 1012.59 1013.04 1013.41 1013.96 1014.42 1014.49 1014.89 1014.84 1014.91 1014.73 1014.50 1014.39 1014.35 1014.28 1014.10 1013.75 1013.38 1013.02 1012.86 1012.70 1012.56 1012.49 1012.30 1012.10 1011.97
1005.63 1005.92 1005.64 1005.48 1005.76 1005.82 1005.93 1006.05 1006.21 1006.24 1006.56 1007.11 1007.59 1008.37 1009.19 1009.85 1010.75 1011.64 1012.36 1012.92 1013.48 1013.75 1014.17 1014.41 1014.78 1014.80 1015.01 1014.88 1014.58 1014.41 1014.30 1014.26 1014.15 1014.02 1013.84 1013.59 1013.27 1012.88 1012.54 1012.11 1011.84 1011.69 1011.56 1011.49
1006.23 1006.06 1006.24 1006.12 1006.60 1006.37 1006.17 1005.92 1006.46 1006.75 1007.20 1007.81 1008.62 1009.27 1010.37 1010.79 1011.20 1012.04 1012.73 1013.38 1013.82 1014.10 1014.42 1014.86 1014.94 1015.16 1015.08 1014.75 1014.61 1014.45 1014.27 1014.29 1014.20 1014.01 1013.70 1013.37 1013.00 1012.72 1012.45 1012.06 1011.63 1011.29 1011.09 1011.03
1007.18 1006.87 1006.35 1005.97 1006.36 1006.40 1006.43 1006.07 1006.45 1007.28 1007.54 1008.16 1008.45 1009.07 1010.80 1011.66 1012.03 1012.62 1013.30 1013.76 1014.16 1014.55 1014.70 1014.76 1015.09 1015.20 1015.01 1014.80 1014.69 1014.49 1014.56 1014.58 1014.42 1014.17 1013.80 1013.40 1013.03 1012.59 1012.15 1011.85 1011.28 1010.95 1010.62 1010.55
1007.07 1006.94 1006.45 1006.49 1006.52 1006.95 1006.93 1006.74 1006.87 1007.54 1007.95 1008.61 1009.08 1010.11 1011.57 1012.48 1013.10 1013.48 1013.84 1014.26 1014.71 1014.73 1014.77 1015.05 1015.27 1015.21 1014.94 1014.85 1014.62 1014.75 1014.60 1014.34 1014.11 1013.96 1013.67 1013.19 1012.66 1012.23 1011.83 1011.37 1011.00 1010.59 1010.19 1009.85
1007.61 1007.38 1007.20 1006.92 1007.39 1007.34 1006.84 1007.01 1007.41 1008.15 1008.62 1009.33 1010.23 1011.16 1012.03 1012.86 1013.55 1014.03 1014.41 1014.56 1014.71 1014.80 1015.04 1015.35 1015.46 1015.32 1015.18 1015.06 1015.06 1014.88 1014.58 1014.34 1014.09 1013.63 1013.21 1012.76 1012.41 1011.83 1011.38 1011.07 1010.64 1010.08 1009.58 1009.04
1007.42 1007.28 1007.57 1007.74 1007.52 1007.26 1007.29 1007.20 1007.85 1008.54 1009.29 1009.93 1010.92 1011.89 1012.80 1013.42 1013.88 1014.30 1014.56 1014.86 1015.04 1015.20 1015.26 1015.43 1015.72 1015.81 1015.57 1015.47 1015.12 1014.69 1014.56 1014.19 1013.84 1013.41 1012.87 1012.38 1011.78 1011.22 1010.94 1010.74 1010.32 1009.96 1009.29 1008.43
1008.02 1007.75 1007.81 1007.86 1007.79 1007.76 1007.58 1007.81 1008.46 1009.18 1009.83 1010.55 1011.21 1012.36 1013.11 1013.69 1014.18 1014.58 1014.82 1014.99 1015.05 1015.09 1015.27 1015.57 1015.84 1015.70 1015.56 1015.50 1015.24 1014.82 1014.37 1013.89 1013.38 1012.79 1012.17 1011.78 1011.16 1010.40 1010.03 1009.80 1009.62 1009.41 1008.95 1008.36
1007.69 1007.73 1007.87 1007.82 1007.97 1008.02 1008.15 1008.47 1009.06 1009.88 1010.26 1010.92 1011.64 1012.54 1013.15 1013.75 1014.23 1014.59 1014.90 1015.12 1015.27 1015.37 1015.40 1015.52 1015.70 1015.66 1015.48 1015.22 1014.93 1014.61 1014.10 1013.57 1013.06 1012.58 1012.08 1011.46 1010.86 1010.31 1009.88 1009.46 1009.14 1008.83 1008.32 1008.00
1006.94 1006.85 1007.15 1007.20 1007.92 1008.21 1008.54 1009.18 1009.49 1010.07 1010.96 1011.67 1012.12 1012.78 1013.46 1014.00 1014.60 1014.91 1015.15 1015.34 1015.44 1015.52 1015.51 1015.68 1015.83 1015.61 1015.26 1015.06 1014.79 1014.52 1014.04 1013.47 1013.03 1012.55 1011.92 1011.35 1010.74 1009.91 1009.38 1009.06 1008.51 1008.30 1008.09 1008.11
1007.72 1007.67 1007.92 1007.51 1008.18 1008.69 1009.03 1009.52 1009.96 1010.64 1011.29 1011.94 1012.79 1013.26 1013.76 1014.40 1015.04 1015.44 1015.58 1015.63 1015.79 1015.92 1015.97 1015.92 1015.74 1015.44 1015.25 1015.05 1014.73 1014.48 1014.06 1013.53 1012.92 1012.41 1011.85 1011.21 1010.45 1009.79 1008.84 1007.88 1007.73 1007.40 1007.17 1006.89
1008.30 1008.30 1008.26 1008.22 1008.29 1009.02 1009.60 1010.24 1010.91 1011.38 1011.93 1012.45 1013.14 1013.71 1014.11 1014.70 1015.21 1015.56 1015.85 1015.91 1015.98 1016.16 1016.14 1015.91 1015.71 1015.51 1015.31 1014.93 1014.67 1014.37 1013.95 1013.51 1013.01 1012.46 1011.89 1011.27 1010.69 1009.99 1009.29 1008.44 1007.48 1006.76 1006.49 1006.32
1008.21 1007.96 1007.49 1007.96 1008.78 1009.53 1010.17 1010.67 1011.22 1011.72 1012.25 1012.80 1013.32 1013.82 1014.33 1014.86 1015.31 1015.74 1016.07 1016.24 1016.29 1016.33 1016.24 1016.06 1015.85 1015.62 1015.40 1015.07 1014.64 1014.19 1013.79 1013.31 1012.83 1012.34 1011.91 1011.49 1010.88 1010.25 1009.58 1008.81 1008.02 1007.16 1006.46 1005.86
1008.92 1008.60 1008.39 1008.29 1008.93 1009.90 1010.50 1011.06 1011.21 1011.68 1012.08 1012.74 1013.35 1014.01 1014.58 1015.06 1015.45 1015.85 1016.15 1016.22 1016.11 1016.21 1016.29 1016.14 1015.81 1015.57 1015.30 1014.89 1014.40 1013.86 1013.63 1013.28 1012.90 1012.49 1012.02 1011.49 1011.01 1010.45 1009.84 1009.17 1008.47 1007.72 1006.93 1006.20
1009.57 1009.46 1009.30 1009.30 1009.63 1010.22 1010.65 1011.07 1011.20 1011.62 1012.26 1012.78 1013.45 1014.19 1014.77 1015.19 1015.53 1015.82 1015.98 1016.11 1016.26 1016.27 1016.22 1016.04 1015.88 1015.55 1015.18 1014.76 1014.11 1013.71 1013.49 1013.15 1012.95 1012.50 1012.06 1011.57 1011.15 1010.71 1010.16 1009.46 1008.80 1008.11 1007.43 1006.88
1010.98 1010.77 1010.62 1010.73 1011.06 1011.00 1011.21 1011.80 1011.70 1011.96 1012.39 1012.97 1013.69 1014.31 1014.78 1015.07 1015.19 1015.53 1015.77 1015.99 1016.04 1015.93 1015.83 1015.81 1015.66 1015.37 1014.99 1014.64 1014.16 1013.83 1013.38 1013.08 1012.63 1012.32 1011.91 1011.50 1011.33 1010.94 1010.44 1009.81 1009.15 1008.46 1007.82 1007.17
1011.89 1011.59 1011.64 1011.17 1012.34 1012.15 1011.89 1012.18 1011.97 1012.07 1012.53 1013.06 1013.61 1014.09 1014.47 1014.74 1015.05 1015.33 1015.54 1015.58 1015.42 1015.22 1015.08 1015.38 1015.48 1015.21 1014.92 1014.78 1014.38 1013.79 1013.62 1013.20 1012.79 1012.43 1012.12 1011.74 1011.13 1010.73 1010.58 1010.08 1009.53 1008.97 1008.43 1007.67
1011.92 1012.06 1012.40 1012.25 1012.45 1012.46 1012.55 1012.20 1011.94 1012.02 1012.36 1012.77 1013.30 1013.87 1014.28 1014.48 1014.82 1015.05 1015.20 1015.00 1014.72 1014.68 1014.88 1015.04 1015.11 1014.90 1014.86 1014.69 1014.50 1013.92 1013.70 1013.35 1013.00 1012.65 1012.32 1011.82 1011.38 1010.84 1010.85 1010.56 1010.04 1009.44 1008.88 1008.27
1012.74 1012.94 1012.96 1012.81 1012.56 1012.40 1012.10 1011.52 1011.63 1011.87 1012.13 1012.62 1012.86 1013.19 1013.61 1013.94 1014.46 1014.71 1014.92 1014.68 1014.23 1014.52 1014.73 1014.92 1014.79 1014.51 1014.50 1014.45 1014.23 1013.90 1013.58 1013.43 1013.15 1012.75 1012.28 1011.91 1011.47 1011.01 1010.89 1010.91 1010.53 1010.01 1009.39 1008.79
1012.82 1012.83 1012.81 1012.71 1012.63 1012.19 1011.54 1011.33 1011.34 1011.64 1012.07 1012.32 1012.63 1012.93 1013.41 1013.74 1014.15 1014.27 1014.33 1014.23 1013.87 1014.38 1014.32 1014.25 1014.30 1014.37 1014.25 1014.39 1013.97 1013.74 1013.55 1013.43 1013.17 1012.74 1012.30 1012.09 1011.74 1011.37 1011.17 1011.27 1010.91 1010.46 1009.89 1009.27
1012.51 1012.54 1012.57 1012.49 1012.21 1011.81 1011.54 1011.48 1011.48 1011.58 1011.71 1011.94 1012.30 1012.69 1013.07 1013.23 1013.57 1013.47 1013.32 1013.07 1013.43 1013.60 1013.85 1013.71 1013.78 1013.90 1014.13 1013.88 1013.72 1013.60 1013.47 1013.24 1013.01 1012.76 1012.52 1012.29 1011.88 1011.53 1011.30 1011.49 1011.34 1010.88 1010.31 1009.78
1012.08 1012.08 1011.93 1012.03 1011.86 1011.63 1011.43 1011.34 1011.49 1011.52 1011.64 1011.76 1012.03 1012.50 1012.82 1012.98 1013.17 1013.04 1013.20 1013.20 1013.36 1013.38 1013.17 1013.07 1013.27 1013.37 1013.60 1013.37 1013.36 1013.29 1013.15 1012.87 1012.82 1012.65 1012.54 1012.43 1011.84 1011.59 1011.36 1011.30 1011.40 1011.16 1010.69 1010.15
1011.84 1011.85 1011.93 1011.69 1011.44 1011.34 1011.34 1011.32 1011.41 1011.49 1011.64 1011.67 1011.86 1012.21 1012.46 1012.64 1012.31 1012.84 1013.10 1012.74 1012.82 1012.92 1012.41 1012.60 1012.86 1012.95 1012.98 1012.85 1012.81 1012.78 1012.61 1012.55 1012.57 1012.47 1012.23 1012.00 1011.70 1011.61 1011.45 1011.18 1011.17 1011.14 1010.84 1010.49
1011.84 1011.75 1011.71 1011.61 1011.42 1011.21 1011.32 1011.36 1011.16 1011.51 1011.52 1011.65 1012.17 1012.30 1012.36 1012.12 1012.60 1012.97 1012.73 1012.59 1012.20 1012.13 1011.87 1012.05 1012.23 1012.36 1012.26 1012.29 1012.27 1012.20 1012.09 1011.95 1011.93 1011.72 1011.84 1011.60 1011.59 1011.46 1011.28 1011.08 1010.86 1010.72 1010.52 1010.35
1011.82 1011.82 1011.89 1011.83 1011.41 1011.38 1011.25 1011.08 1011.03 1011.21 1011.54 1011.79 1011.88 1012.15 1012.24 1012.45 1012.54 1012.51 1012.48 1012.00 1011.83 1011.74 1011.79 1011.88 1011.85 1012.04 1011.94 1011.86 1011.63 1011.58 1011.62 1011.54 1011.57 1011.38 1011.22 1011.16 1011.06 1010.95 1010.81 1010.76 1010.68 1010.48 1010.18 1009.99
Wind_Speed
2 2 3 3 9 12 8 6 8 3 9 8 15 15 16 15 14 13 11 9 7 6 5 4 4 5 5 4 4 3 2 2 4 5 5 6 6 6 5 5 4 6 8 11
1 2 3 4 4 7 7 4 9 5 9 1 11 14 14 15 13 12 10 8 7 6 4 4 4 4 2 3 4 4 4 5 6 7 7 7 5 5 6 6 5 5 6 8
6 1 8 4 6 6 4 4 4 8 4 4 12 17 17 16 12 12 10 8 6 7 5 4 5 3 3 4 3 3 4 4 5 6 8 10 10 10 9 7 6 7 7 8
4 4 7 4 3 2 5 5 7 9 4 5 8 11 12 14 14 11 10 9 6 5 6 6 3 4 5 5 6 7 7 7 6 7 8 9 9 10 12 10 10 9 10 10
1 3 4 4 7 6 6 5 8 7 7 11 15 15 10 7 9 10 9 8 7 6 6 2 4 5 7 8 8 8 9 8 9 10 10 11 11 11 11 11 11 11 11 11
3 4 5 1 3 3 5 6 9 10 13 17 18 11 6 9 12 11 10 7 6 4 3 4 6 6 8 8 8 8 8 9 9 10 10 11 12 12 11 11 12 11 13 13
4 6 4 4 7 3 6 3 11 12 15 16 10 4 14 10 9 7 7 6 3 3 5 5 6 7 8 9 9 9 10 10 10 10 11 11 11 11 11 12 12 13 14 13
3 5 9 7 6 7 2 8 14 14 13 12 15 16 14 11 9 7 5 3 4 4 5 5 5 7 8 9 10 10 10 11 12 13 10 9 10 11 13 12 13 13 13 13
5 3 2 4 4 4 5 10 14 13 13 18 16 14 12 9 7 5 4 3 2 3 4 5 6 7 8 9 10 9 11 13 12 13 12 12 12 12 8 8 7 9 11 11
3 4 5 6 5 5 7 10 13 15 16 15 17 13 10 8 6 5 4 4 5 6 7 7 7 8 7 8 9 11 12 13 11 12 12 13 10 10 10 10 8 7 7 8
4 3 2 3 3 7 11 14 16 14 14 15 15 11 9 7 5 5 4 5 5 6 6 8 9 9 9 10 10 11 12 12 12 10 12 12 12 10 10 11 10 9 9 8
3 5 2 5 11 14 16 15 16 17 14 10 11 10 8 6 5 5 5 5 5 6 7 8 9 9 10 10 10 10 11 10 9 9 8 9 9 11 11 16 19 16 16 13
3 2 2 8 12 12 14 15 15 15 15 14 10 9 8 7 5 5 5 5 6 6 5 7 8 9 10 11 11 10 9 10 8 8 8 8 9 8 10 9 12 15 15 17
8 7 5 13 9 14 14 14 13 14 13 11 11 9 8 7 6 5 6 6 6 6 6 7 8 9 11 11 11 10 9 9 7 7 8 8 8 8 8 9 11 11 8 11
9 14 6 12 14 13 14 15 16 14 13 11 10 9 8 7 6 6 6 5 5 5 6 7 8 9 10 10 11 11 8 7 9 8 8 9 8 8 8 9 9 9 8 9
4 6 11 16 17 15 15 15 15 13 12 11 10 8 7 7 8 7 5 4 4 5 6 7 8 9 10 10 11 9 9 13 10 8 7 8 8 8 8 8 9 9 11 13
1 5 8 13 15 16 14 13 13 13 11 11 11 10 9 8 7 6 5 4 2 1 3 5 7 8 8 9 10 8 7 8 12 8 8 8 8 8 8 8 9 9 10 11
10 11 10 4 5 9 6 11 10 11 11 11 10 10 9 9 8 8 7 5 4 4 3 3 5 8 9 9 10 8 8 8 8 9 9 9 9 8 9 10 10 10 11 11
11 11 14 11 7 2 4 4 7 9 8 10 12 12 10 9 8 8 7 6 5 5 2 2 5 5 8 10 10 7 8 9 9 9 10 10 9 10 10 10 10 10 10 10
12 11 9 11 4 3 8 12 12 9 9 11 10 9 8 9 8 7 7 8 6 4 2 4 5 4 6 7 8 6 7 9 9 9 9 9 10 10 10 12 11 10 11 10
7 3 4 6 6 7 9 5 5 6 10 10 12 10 11 9 9 8 7 7 6 5 5 4 4 2 2 4 4 6 7 8 8 9 9 10 10 11 10 11 10 10 10 10
2 2 2 3 5 10 9 3 4 4 8 9 9 9 8 9 5 8 10 10 5 7 5 4 3 5 2 2 3 5 6 7 7 8 9 9 9 10 10 9 10 10 10 10
6 5 5 8 6 4 2 2 2 5 8 9 8 9 7 4 4 6 7 6 7 7 7 6 5 7 6 3 3 4 5 6 7 7 8 8 8 8 8 8 9 9 9 10
3 3 3 1 3 3 4 3 3 4 5 5 6 7 5 3 3 2 5 7 7 7 7 5 6 8 6 4 3 4 4 5 6 6 6 6 7 8 8 7 8 8 9 10
3 3 2 2 4 3 4 2 2 0 2 4 7 7 5 2 3 2 6 6 3 6 6 8 9 7 6 5 5 5 4 4 4 5 6 6 6 6 6 6 6 7 7 8
3 3 3 4 3 2 2 1 1 3 5 6 2 1 2 4 1 4 5 4 5 3 4 4 5 5 6 6 6 7 6 6 6 5 5 5 5 5 5 6 6 6 5 6
2 2 2 2 2 1 1 2 3 4 4 5 4 3 3 2 3 5 2 4 4 1 2 3 3 3 5 6 7 7 7 7 6 6 5 4 5 5 6 5 5 5 5 5
Wind_Direction
270 278 219 195 182 177 195 156 219 240 230 257 189 169 162 154 145 146 148 152 140 125 103 84 99 87 65 34 5 352 1 11 339 319 307 306 313 323 320 300 289 277 275 267
133 187 206 154 122 198 227 214 252 254 274 109 147 153 158 157 156 153 153 147 134 119 105 115 77 50 360 334 319 314 328 331 326 312 307 303 295 297 301 303 294 278 270 268
171 222 162 194 203 184 190 225 254 224 280 145 166 174 166 159 159 157 154 147 134 124 110 80 64 41 21 351 340 10 5 345 322 314 311 312 314 310 298 289 288 277 275 275
128 183 211 44 13 285 261 271 249 262 287 194 173 150 149 158 157 154 144 132 131 120 114 86 60 12 329 328 349 347 336 328 326 318 305 299 296 295 297 303 303 296 284 275
272 260 339 166 223 189 199 272 219 225 164 142 137 124 87 117 133 131 126 123 112 103 97 81 20 349 332 336 342 334 333 328 323 317 309 305 299 296 292 292 289 285 280 273
148 213 259 144 186 198 202 283 178 192 170 157 156 167 134 120 118 113 110 101 100 82 69 19 3 343 335 333 327 321 324 316 311 306 301 298 294 293 294 288 284 283 277 271
216 247 279 242 145 162 204 285 163 172 162 161 167 71 124 122 112 102 99 97 80 33 18 9 354 343 332 328 322 327 318 317 315 311 305 296 295 295 296 292 287 279 276 272
149 218 255 150 137 216 47 136 148 154 157 137 124 129 137 136 130 126 116 68 34 10 8 15 8 349 335 324 326 317 318 320 317 312 312 305 296 294 294 291 283 282 280 278
225 207 13 285 292 332 189 161 156 139 135 132 132 133 138 133 127 105 77 62 44 355 352 10 7 344 324 330 322 324 319 312 310 305 305 302 294 285 280 269 266 279 283 286
227 177 267 282 260 242 205 159 145 139 138 137 131 136 131 132 135 126 81 37 15 4 358 352 352 349 347 333 333 322 318 318 315 311 313 309 304 302 298 295 286 270 268 272
255 254 259 220 223 161 138 136 126 129 131 130 131 133 130 117 96 69 51 33 17 3 355 354 347 345 338 333 329 323 321 316 316 314 313 308 303 300 298 289 281 287 284 287
283 208 216 178 159 152 141 142 134 129 124 121 125 122 124 104 82 61 43 33 23 7 357 357 344 337 339 338 335 322 316 319 312 307 305 300 295 295 272 249 265 263 260 261
326 295 311 170 152 157 146 145 140 136 136 129 120 121 117 109 87 76 61 46 24 13 6 355 345 349 348 342 335 321 314 315 315 306 302 299 295 289 294 295 256 259 259 259
249 176 174 175 167 158 152 144 138 132 132 131 130 124 118 113 109 85 64 54 47 31 22 5 2 356 349 346 340 328 329 315 317 320 319 318 317 317 315 315 313 312 290 263
246 216 232 151 150 156 151 145 146 147 142 137 136 132 135 130 120 106 95 81 72 49 30 14 5 2 352 348 347 350 340 340 341 339 338 328 324 323 321 319 320 319 326 315
280 207 170 162 154 158 159 163 156 155 154 145 143 146 140 131 133 128 121 98 72 45 23 16 10 359 349 354 348 355 351 351 351 339 336 340 339 337 335 334 330 329 329 328
128 140 168 156 161 163 173 178 172 164 159 160 161 154 154 154 151 153 152 154 155 38 14 9 4 355 350 353 359 359 351 355 354 355 352 350 347 343 338 340 339 334 332 328
42 55 46 55 201 157 136 206 177 169 178 168 161 165 168 176 182 181 186 187 210 236 245 342 351 359 6 2 356 -0 358 354 360 358 353 359 355 352 345 348 342 341 336 334
44 43 33 46 355 4 124 242 206 189 167 171 174 185 192 195 193 193 193 212 232 251 222 286 340 341 14 18 358 16 13 5 9 4 359 350 356 357 355 350 343 344 341 343
29 30 16 31 323 286 259 238 220 194 189 185 185 182 196 207 201 204 210 233 241 250 271 295 311 343 12 24 10 19 22 10 8 6 6 356 3 0 358 352 348 346 347 346
56 9 357 355 330 291 271 210 174 191 185 190 194 195 201 209 202 210 224 245 249 211 212 243 268 298 13 360 2 12 14 9 5 4 4 360 359 3 8 356 350 350 347 347
338 332 126 298 291 256 249 265 211 208 198 199 207 211 206 215 198 218 236 246 254 201 221 233 237 231 284 276 349 357 357 3 1 4 6 1 360 358 9 356 355 351 351 350
286 233 217 243 255 305 341 263 217 216 206 206 203 212 209 223 226 230 257 248 241 223 235 226 218 231 239 258 303 322 337 349 352 358 358 357 358 358 5 359 352 352 347 350
276 290 288 263 240 251 269 272 271 262 255 226 212 209 196 173 200 225 277 265 245 238 239 225 225 224 222 250 272 294 315 336 340 346 349 346 360 358 355 1 356 349 350 351
305 300 266 267 293 277 280 301 258 304 182 171 167 166 170 211 63 307 284 285 269 252 236 190 219 231 225 247 264 277 295 305 315 325 344 350 355 352 344 353 358 351 347 351
288 302 309 314 290 293 315 245 138 149 164 147 120 163 151 77 70 269 282 293 296 254 209 175 208 208 227 245 264 280 288 294 298 313 324 342 340 339 337 341 347 344 340 348
230 259 210 213 227 337 185 158 145 152 173 162 166 166 135 147 257 269 289 336 331 213 183 230 220 219 251 256 267 278 282 282 271 286 306 323 333 339 340 336 326 323 326 334